Location: Latina
(41.4670°N, 12.8670°E)
Time: 17:55:53
(UTC+02:00)

ISS - Pass Details

Date: 17 May 2021
Orbit: 417 x 422 km, 51.6° (Epoch: 18 June)

Event Time Altitude Azimuth Distance (km) Brightness Sun altitude
Rises 02:05:07 0° 309° (NW) 2,372 0.4 -27.6°
Reaches altitude 10° 02:07:32 10° 325° (NW) 1,507 -0.5 -27.5°
Maximum altitude 02:10:16 22° 19° (NNE) 964 -1.2 -27.3°
Drops below altitude 10° 02:13:01 10° 73° (ENE) 1,506 -0.6 -27.2°
Sets 02:15:25 0° 89° (E) 2,369 0.3 -27.0°
